Regional Weather Roundup
Issued by NWS

Home | Current Version | Previous Version | Text Only | Print | Product List | Glossary On
Versions: 1 2 3 4 5 6 7 8 9 10 11 12 13 14 15 16 17 18 19 20 21 22 23 24 25 26 27
000
ASUS45 KBOU 191610
RWRCO

WEATHER ROUNDUP FOR COLORADO
NATIONAL WEATHER SERVICE DENVER/BOULDER CO
1000 AM MDT SAT MAY 19 2018

NOTE: "FAIR" INDICATES FEW OR NO CLOUDS BELOW 12000 FEET WITH NO
SIGNIFICANT WEATHER AND/OR OBSTRUCTIONS TO VISIBILITY.

COZ001>005-013-030-031-191700-
...NORTHWEST COLORADO...

CITY           SKY/WX    TMP DP  RH WIND       PRES   REMARKS
CRAIG          FAIR      52  42  69 SW7       30.08R
HAYDEN         FAIR      49  41  74 CALM      30.10S
MEEKER         PTSUNNY   54  40  59 MISG      30.07S
RANGELY        FAIR      60  41  49 E12G17    30.04S
RABBIT EARS PA CLOUDY    34  34 100 E7        30.21R WCI  28
STEAMBOAT SPGS FAIR      48  38  68 W6        30.08S
WALDEN         CLOUDY    48  36  61 N3        30.15S
$$

COZ006>008-011-191700-
...WEST CENTRAL VALLEYS...

CITY           SKY/WX    TMP DP  RH WIND       PRES   REMARKS
GRAND JUNCTION FAIR      66  38  35 CALM      29.96S
MONTROSE       FAIR      64  28  25 N5        30.00F
EAGLE          FAIR      53  33  46 VRB3      30.07F
RIFLE          FAIR      60  39  45 VRB3      30.00F
DELTA          FAIR      65  28  25 CALM      29.98F
NUCLA          NOT AVBL
$$

COZ017>023-064>068-191700-
...SOUTHWEST COLORADO...

CITY           SKY/WX    TMP DP  RH WIND       PRES   REMARKS
DURANGO        FAIR      63  23  21 VRB3      30.04F
CORTEZ         FAIR      66  26  22 VRB3      30.02S
PAGOSA SPRINGS FAIR      60   9  13 S8        30.09F
TELLURIDE      FAIR      56  20  25 SW5       30.14F
WOLF CREEK PAS FAIR      39  12  33 SW20G25   30.32R
$$

COZ009-010-012-014-032>034-037-058>063-191700-
...CENTRAL COLORADO...

CITY           SKY/WX    TMP DP  RH WIND       PRES   REMARKS
ASPEN          FAIR      58  23  26 N7        30.04F
BUENA VISTA    FAIR      52  36  54 E7        30.11F
COPPER MTN     FAIR      41  27  56 CALM      30.25S
BERTHOUD PASS  HAZE      28  18  64 SE6       30.27S VSB<1/4 WCI  22
COTTONWOOD PAS FAIR      52  41  66 E6        30.18F
GUNNISON       FAIR      53  25  33 CALM      30.08F
GRANBY         FAIR      44  37  74 CALM      30.13S
KREMMLING      FAIR      54  37  54 CALM      30.12S
LEADVILLE      FAIR      44  33  65 CALM      30.15F
MONARCH PASS   FAIR      43  23  45 MISG      30.36S
SALIDA         FAIR      55  38  54 E5        30.17F
SUNLIGHT       FAIR      43  28  56 CALM      30.24R
WILKERSON PASS CLOUDY    34  34 100 SW3       30.26S
$$

COZ069>075-191700-
...SAN LUIS VALLEY/SANGRE DE CRISTO MOUNTAINS...

CITY           SKY/WX    TMP DP  RH WIND       PRES   REMARKS
ALAMOSA        FAIR      60  31  33 SE10      30.07F
DEL NORTE      FAIR      57  32  37 E10       30.09F
LA VETA PASS   CLOUDY    41  37  87 NE7       30.32S FOG
SAGUACHE       NOT AVBL
$$

COZ035-036-038>040-191700-
...NORTHERN COLORADO FRONT RANGE...

CITY           SKY/WX    TMP DP  RH WIND       PRES   REMARKS
DENVER INTL AP CLOUDY    49  45  86 N21G29    30.09R
AURORA         CLOUDY    48  47  99 N13       30.10R
FRONT RANGE AP CLOUDY    50  48  93 N12G17    30.10R
ERIE MUNI ARPT CLOUDY    50  46  86 NE13      30.15R
BOULDER MUN AP LGT RAIN  48  46  93 NE7       30.10R
CENTENNIAL     LGT RAIN  47  46  97 N10       30.10R FOG
BROOMFIELD     CLOUDY    48  46  93 N12       30.11R
FORT COLLINS   LGT RAIN  49  45  86 N20G28    30.11R
LONGMONT       CLOUDY    53  48  85 NE12      30.12R
$$

COZ041-046-047-076>085-087-088-191700-
...PIKES PEAK/PALMER DIVIDE AND SOUTHERN FOOTHILLS...

CITY           SKY/WX    TMP DP  RH WIND       PRES   REMARKS
COLO. SPRINGS  CLOUDY    54  43  66 N14       30.08S
A. F. ACADEMY  CLOUDY    52  42  71 N20       30.08F
SCHRIEVER AFB  NOT AVBL
CHEYENNE MTN   CLOUDY    49  41  73 NE5       30.06R
ELLICOTT         N/A    N/A N/A N/A N14       30.07R
FALCON         PTSUNNY   54  41  62 N17G25    30.10R
FORT CARSON    CLOUDY    56  41  58 CALM      30.07R
LIMON          CLOUDY    53  45  74 NW24G36   30.05R
MONUMENT HILL  CLOUDY    43  41  93 N12       30.14R FOG
CANON CITY     CLOUDY    59  50  72 E8        30.06S
WALSENBURG     CLOUDY    57  46  67 MISG      30.08F
TRINIDAD       CLOUDY    53  46  77 E3        30.08F
$$

COZ042>045-048>051-090-091-191700-
...NORTHEAST COLORADO...

CITY           SKY/WX    TMP DP  RH WIND       PRES   REMARKS
GREELEY ARPT   RAIN      47  44  90 N15       30.11R
AKRON          RAIN      44  44 100 N21G33    30.02R FOG
BURLINGTON     PTSUNNY   59  47  64 W28G38    29.98R
WRAY           CLOUDY    52  48  87 NE28G33   29.91R
YUMA           HVY RAIN  46  36  66 NE28G37   29.94R
STERLING       RAIN      45  45 100 N22G30    30.02R
HOLYOKE        LGT RAIN  48  45  87 NE25      29.97R
FORT MORGAN    MIX PCPN  45  42  90 N20G25    30.08R
$$

COZ086-089-092>099-191700-
...SOUTHEAST COLORADO...

CITY           SKY/WX    TMP DP  RH WIND       PRES   REMARKS
PUEBLO         PTSUNNY   59  47  64 CALM      30.04S
LA JUNTA       FAIR      61  49  64 NE7       30.04R
LAMAR          CLOUDY    58  51  78 N3        30.01R
SPRINGFIELD      N/A     56  53  90 CALM      30.02F
$$




USA.gov is the U.S. government's official web portal to all federal, state and local government web resources and services.